Location: Basse Occidentale du Courleau
(48.3833°N, 4.8333°W)
Time: 04:37:59
(UTC+00:00)

Cosmos 2278 Rocket - Pass Details

Date: 05 July 2020
Orbit: 841 x 845 km, 71.0° (Epoch: 11 August)

Event Time Altitude Azimuth Distance (km) Brightness Sun altitude
Rises 20:59:06 0° 336° (NNW) 3,417 6.9 -5.5°
Reaches altitude 10° 21:02:03 10° 350° (N) 2,478 5.6 -5.8°
Maximum altitude 21:06:37 24° 44° (NE) 1,681 3.8 -6.4°
Drops below altitude 10° 21:11:10 10° 97° (E) 2,466 4.2 -6.9°
Enters shadow 21:12:50 - 106° (ESE) 2,982 4.5 -7.1°
